Change the Weather History Date:

Thursday, October 4, 2012

  Actual Average (KPAH) Record (KPAH)
Temperature  
Mean Temperature 67 °F 63 °F  
Max Temperature 81 °F 75 °F 90 °F (2006)
Min Temperature 53 °F 50 °F 30 °F (1987)
Degree Days  
Heating Degree Days 0 5  
Month to date heating degree days 17  
Since 1 July heating degree days 56  
Cooling Degree Days 2 2  
Month to date cooling degree days 9  
Year to date cooling degree days 1509  
Growing Degree Days 17 (Base 50)    
Moisture  
Dew Point 57 °F    
Average Humidity 77    
Maximum Humidity 100    
Minimum Humidity 38    
Precipitation  
Precipitation 0.00 in 0.14 in 2.77 in (1983)
Month to date precipitation 0.55  
Year to date precipitation 36.78  
Snow  
Snow 0.00 in 0.00 in 0.00 in (2002)
Month to date snowfall 0.0  
Since 1 July snowfall 0.0  
Since 1 September snowfall 0.0  
Snow Depth -    
Sea Level Pressure  
Sea Level Pressure 30.17 in    
Wind  
Wind Speed 2 mph (SSW)    
Max Wind Speed 10 mph    
Max Gust Speed 16 mph    
Visibility 9 miles    
Events      
T = Trace of Precipitation, MM = Missing Value Source: NWS Daily Summary

Daily Weather History Graph

Daily Weather History Graph

Search for Another Location

Airport or City:

Trip Planner

Search our weather history database for the weather conditions in past years. The results will help you decide how hot, cold, wet, or windy it might be!

Date:

Astronomy

Oct. 04, 2012 Rise Set
Actual Time 6:53 AM CDT 6:33 PM CDT
Civil Twilight 6:27 AM CDT 6:59 PM CDT
Nautical Twilight 5:57 AM CDT 7:29 PM CDT
Astronomical Twilight 5:26 AM CDT 7:59 PM CDT
Moon 9:14 PM CDT (10/4) 11:04 AM CDT (10/4)
Length of Visible Light 12h 31m
Length of Day
11h 39m
Waning Gibbous, 82% of the Moon is Illuminated
Oct 4
Waning Gibbous
Oct 8
Last Quarter
Oct 15
New
Oct 21
First Quarter
Oct 29
Full

Hourly Weather History & Observations

Time (CDT) Temp. Heat Index Dew Point Humidity Pressure Visibility Wind Dir Wind Speed Gust Speed Precip Events Conditions
12:15 AM 61.9 °F - 56.3 °F 82% 30.12 in 10.0 mi Calm Calm - N/A   Mostly Cloudy
12:35 AM 62.4 °F - 55.4 °F 78% 30.13 in 10.0 mi Calm Calm - N/A   Scattered Clouds
12:55 AM 61.0 °F - 55.4 °F 82% 30.13 in 10.0 mi Calm Calm - N/A   Scattered Clouds
1:15 AM 59.9 °F - 55.0 °F 84% 30.13 in 10.0 mi Calm Calm - N/A   Mostly Cloudy
1:35 AM 59.2 °F - 55.0 °F 86% 30.13 in 10.0 mi Calm Calm - N/A   Mostly Cloudy
1:55 AM 57.6 °F - 55.6 °F 93% 30.13 in 10.0 mi Calm Calm - N/A   Clear
2:15 AM 57.4 °F - 56.3 °F 96% 30.13 in 10.0 mi Calm Calm - N/A   Clear
2:35 AM 56.7 °F - 56.1 °F 98% 30.13 in 10.0 mi Calm Calm - N/A   Scattered Clouds
2:55 AM 56.7 °F - 56.1 °F 98% 30.14 in 10.0 mi Calm Calm - N/A   Scattered Clouds
3:15 AM 55.8 °F - 55.4 °F 99% 30.14 in 10.0 mi Calm Calm - N/A   Scattered Clouds
3:35 AM 55.8 °F - 55.6 °F 99% 30.14 in 7.0 mi Calm Calm - N/A   Clear
3:55 AM 55.4 °F - 55.4 °F 100% 30.15 in 7.0 mi Calm Calm - N/A   Clear
4:15 AM 54.3 °F - 54.3 °F 100% 30.16 in 7.0 mi Calm Calm - N/A   Clear
4:35 AM 54.3 °F - 54.3 °F 100% 30.16 in 7.0 mi Calm Calm - N/A   Clear
4:55 AM 54.7 °F - 54.7 °F 100% 30.17 in 7.0 mi Calm Calm - N/A   Scattered Clouds
5:15 AM 54.3 °F - 54.3 °F 100% 30.18 in 5.0 mi Calm Calm - N/A   Scattered Clouds
5:35 AM 54.5 °F - 54.5 °F 100% 30.19 in 10.0 mi Calm Calm - N/A   Clear
5:55 AM 53.8 °F - 53.8 °F 100% 30.19 in 10.0 mi Calm Calm - N/A   Clear
6:15 AM 53.6 °F - 53.6 °F 100% 30.19 in 7.0 mi Calm Calm - N/A   Clear
6:35 AM 53.4 °F - 53.4 °F 100% 30.19 in 5.0 mi Calm Calm - N/A   Clear
6:55 AM 53.2 °F - 53.2 °F 100% 30.19 in 2.5 mi Calm Calm - N/A   Clear
7:15 AM 53.4 °F - 53.4 °F 100% 30.19 in 2.5 mi Calm Calm - N/A   Clear
7:35 AM 53.8 °F - 53.8 °F 100% 30.20 in 3.0 mi Calm Calm - N/A   Clear
7:55 AM 56.7 °F - 56.7 °F 100% 30.21 in 5.0 mi Calm Calm - N/A   Clear
8:15 AM 60.1 °F - 59.5 °F 98% 30.21 in 10.0 mi Calm Calm - N/A   Clear
8:35 AM 62.1 °F - 58.8 °F 89% 30.22 in 10.0 mi South 3.5 mph - N/A   Clear
8:55 AM 63.5 °F - 59.4 °F 86% 30.22 in 10.0 mi South 4.6 mph - N/A   Clear
9:15 AM 65.3 °F - 59.7 °F 82% 30.23 in 10.0 mi SSW 3.5 mph - N/A   Clear
9:35 AM 67.1 °F - 60.3 °F 79% 30.23 in 10.0 mi South 3.5 mph - N/A   Clear
9:55 AM 69.1 °F - 57.9 °F 68% 30.23 in 10.0 mi SW 6.9 mph - N/A   Clear
10:15 AM 71.2 °F - 58.6 °F 64% 30.23 in 10.0 mi SSW 5.8 mph - N/A   Clear
10:35 AM 72.0 °F - 58.8 °F 63% 30.23 in 10.0 mi SW 6.9 mph - N/A   Clear
10:55 AM 73.6 °F - 59.2 °F 61% 30.23 in 10.0 mi SSW 6.9 mph - N/A   Clear
11:15 AM 74.8 °F - 58.3 °F 56% 30.23 in 10.0 mi SW 10.4 mph - N/A   Clear
11:35 AM 75.2 °F - 58.3 °F 56% 30.22 in 10.0 mi WSW 6.9 mph 16.1 mph N/A   Clear
11:55 AM 76.6 °F - 59.0 °F 54% 30.22 in 10.0 mi SW 6.9 mph - N/A   Clear
12:15 PM 77.4 °F - 57.9 °F 51% 30.21 in 10.0 mi SSW 8.1 mph - N/A   Clear
12:35 PM 77.4 °F - 57.2 °F 50% 30.21 in 10.0 mi SW 9.2 mph - N/A   Clear
12:55 PM 78.1 °F - 56.5 °F 47% 30.20 in 10.0 mi SW 8.1 mph - N/A   Clear
1:15 PM 79.2 °F - 57.6 °F 47% 30.19 in 10.0 mi SSW 6.9 mph - N/A   Clear
1:55 PM 79.7 °F - 56.3 °F 44% 30.17 in 10.0 mi WSW 6.9 mph - N/A   Clear
2:15 PM 79.9 °F - 56.3 °F 44% 30.16 in 10.0 mi SSW 10.4 mph - N/A   Clear
2:35 PM 79.9 °F - 55.4 °F 43% 30.16 in 10.0 mi SSW 8.1 mph - N/A   Clear
2:55 PM 80.6 °F 80.4 °F 54.1 °F 40% 30.15 in 10.0 mi South 5.8 mph - N/A   Clear
3:15 PM 80.6 °F - 52.9 °F 38% 30.15 in 10.0 mi SSW 6.9 mph - N/A   Clear
3:35 PM 81.1 °F 80.9 °F 55.2 °F 41% 30.14 in 10.0 mi South 6.9 mph - N/A   Clear
3:55 PM 81.0 °F 80.4 °F 53.4 °F 38% 30.14 in 10.0 mi SW 6.9 mph - N/A   Clear
4:15 PM 80.6 °F 80.4 °F 55.0 °F 41% 30.14 in 10.0 mi SSW 5.8 mph - N/A   Clear
4:35 PM 80.2 °F 80.3 °F 55.2 °F 42% 30.14 in 10.0 mi South 5.8 mph - N/A   Clear
4:55 PM 79.9 °F - 56.1 °F 44% 30.14 in 10.0 mi South 5.8 mph - N/A   Scattered Clouds
5:35 PM 77.9 °F - 56.7 °F 48% 30.14 in 10.0 mi SW 3.5 mph - N/A   Clear
5:55 PM 76.5 °F - 57.2 °F 51% 30.14 in 10.0 mi South 3.5 mph - N/A   Clear
6:15 PM 74.5 °F - 57.2 °F 55% 30.14 in 10.0 mi Calm Calm - N/A   Clear
6:35 PM 70.9 °F - 58.5 °F 65% 30.14 in 10.0 mi Calm Calm - N/A   Clear
6:55 PM 69.1 °F - 59.0 °F 70% 30.14 in 10.0 mi Calm Calm - N/A   Clear
7:15 PM 67.1 °F - 59.2 °F 76% 30.14 in 10.0 mi Calm Calm - N/A   Clear
7:35 PM 65.8 °F - 59.0 °F 79% 30.14 in 10.0 mi Calm Calm - N/A   Clear
8:15 PM 64.4 °F - 58.6 °F 82% 30.15 in 10.0 mi Calm Calm - N/A   Clear
8:35 PM 63.0 °F - 58.6 °F 86% 30.15 in 10.0 mi Calm Calm - N/A   Clear
9:15 PM 61.7 °F - 59.9 °F 94% 30.16 in 10.0 mi Calm Calm - N/A   Clear
9:35 PM 61.7 °F - 59.9 °F 94% 30.16 in 10.0 mi Calm Calm - N/A   Clear
9:55 PM 60.8 °F - 59.4 °F 95% 30.16 in 10.0 mi Calm Calm - N/A   Clear
10:15 PM 60.3 °F - 59.2 °F 96% 30.16 in 10.0 mi Calm Calm - N/A   Clear
10:35 PM 59.4 °F - 59.2 °F 99% 30.16 in 10.0 mi Calm Calm - N/A   Clear
10:55 PM 59.9 °F - 59.5 °F 99% 30.16 in 7.0 mi Calm Calm - N/A   Clear
11:15 PM 59.0 °F - 58.5 °F 98% 30.16 in 5.0 mi Calm Calm - N/A   Clear
11:35 PM 58.8 °F - 58.5 °F 99% 30.16 in 5.0 mi Calm Calm - N/A   Clear
11:55 PM 58.3 °F - 58.3 °F 100% 30.15 in 5.0 mi Calm Calm - N/A   Clear